星链-5830 (STARLINK-5830 )

导读 | 豆包AI

STARLINK-5830是美国太空探索技术公司(SpaceX)研制的星链(Starlink)系列卫星之一,于2023年6月22日发射升空,属于星链互联网卫星项目的组网卫星。该卫星旨在为全球提供高速低延迟互联网覆盖,是SpaceX推进星链大规模组网部署进程中新纳入的一颗卫星,助力构建全球卫星互联网星座。

基本信息
目录编号:
57065
目录名称:
STARLINK-5830
国际标识:
2023-088T
轨道中心:
EARTH
卫星名称:
星链-5830
卫星全名:
星链-5830 (STARLINK-5830 )
卫星状态:
在轨 (已飞行1043 天)
发射日期:
2023-06-22 UTC
国别 :
美国 (US)
星等 :
--
轨道信息
数据来源 国际轨道数据
星历时间: 2026-04-30T13:07:03+0800
4小时前
查看轨道信息
半长轴: 6863.7km
偏心率: 0.0001153
轨道倾角: 42.999°
近地点辐角 275.959°
升交点赤经 182.940°
平近点角 84.113°
近地点: 484.771km
远地点: 486.355km
周期: 94.319分钟
每日圈数: 15.267411
详细信息
固有亮度:
5
最大亮度:
2.4
卫星平台:
Starlink v1.5
覆盖范围:
全球
运营商:
太空探索技术公司
运营商所在国:
美国
制造商(研发单位):
太空探索技术公司
制造商所在国:
美国
使用方式:
暂无
卫星简介
星链(Starlink)计划是由太空探索技术公司(SpaceX)提出的一个巨型低轨卫星互联网星座项目,计划在2019年至2024年间在太空搭建由约1.2万颗卫星组成的“星链”网络,其中1584颗将部署在地球上空550千米处的近地轨道,并从2020年开始工作。该卫星仍在工作。
2D轨道图
3D轨道图
轨道高度分析图
轨道倾角分析图
轨道综合分析图
查看轨道综合分析图